Location: Grasslands National Park East Block
(49.0708°N, 106.5295°W)
Time: 10:15:49
(UTC-06:00)

Vanguard 1 - Pass Details

Date: 22 September 2019
Orbit: 653 x 3830 km, 34.3° (Epoch: 14 October)

Event Time Altitude Azimuth Distance (km) Brightness Sun altitude
Rises 03:35:47 0° 239° (WSW) 7,800 - -30.2°
Reaches altitude 10° 03:41:16 10° 234° (SW) 6,897 - -29.5°
Exits shadow 03:53:13 34° 215° (SW) 5,061 13.1 -28.0°
Maximum altitude 04:02:45 48° 170° (S) 4,138 12.9 -26.8°
Drops below altitude 10° 04:18:37 10° 103° (ESE) 5,250 14.3 -24.7°
Sets 04:22:06 0° 98° (E) 5,898 14.8 -24.2°
